Home   Weather   Vitória da Conquista   Past weeks

Flag for Brazil Past Weather in Vitória da Conquista, Bahia, Brazil — Yesterday and Last 2 Weeks

Now
84 °F

Sunny.


Feels Like: 91 °F
Forecast: 66 / 74 °F
Wind: 16 mph from East

Location: Salvador Aeroporto

Current Time: Dec 8, 2016 at 3:31:47 pm

Latest Report: Dec 8, 2016 at 3:00 pm


Visibility: 10 mi

Pressure: 29.83 "Hg (26.98 "Hg at 889m altitude)

Humidity: 70%

Dew Point: 73 °F

Location of Vitória da ConquistaLocation

Past Weather in Vitória da Conquista — Graph

°F

Vitória da Conquista Temperature Yesterday

Maximum temperature yesterday: 86 °F (at 11:00 am)
Minimum temperature yesterday: 75 °F (at 2:00 am)
Average temperature yesterday: 80 °F

High & Low Weather Summary for the Past Weeks

 TemperatureHumidityPressure
High88 °F (Dec 4, 11:00 am)100% (Nov 25, 12:00 am)30.01 "Hg (Nov 25, 12:00 am)
Low72 °F (Nov 27, 4:00 am)58% (Nov 26, 11:00 am)29.65 "Hg (Nov 25, 12:00 am)
Average80 °F75%29.91 "Hg
* Reported Nov 23 2:00 pm — Dec 8 2:00 pm, Vitória da Conquista, Weather by CustomWeather, © 2016

Note: Actual official high and low records may vary slightly from our data, if they occured in-between our weather recording intervals... More about our weather records

Advertising

Vitória da Conquista Weather History for the Previous 24 Hours

Scroll right to see more
 ConditionsComfort  
Time TempWeatherWind HumidityBarometerVisibility
2:00 pm
Thu, Dec 8
86 °FSunny.18 mph66%29.86 "Hg10 mi
1:00 pm86 °FSunny.20 mph66%29.86 "Hg10 mi
12:00 pm84 °FPassing clouds.18 mph70%29.89 "HgN/A
11:00 am86 °FScattered clouds.20 mph66%29.92 "HgN/A
10:00 am86 °FScattered clouds.17 mph62%29.92 "HgN/A
9:00 am84 °FScattered clouds.16 mph66%29.92 "HgN/A
8:00 am84 °FScattered clouds.15 mph70%29.92 "HgN/A
7:00 am81 °FPartly sunny.7 mph74%29.92 "HgN/A
6:00 am77 °FPassing clouds.2 mph83%29.89 "HgN/A
5:00 am77 °FPassing clouds.3 mph83%29.86 "HgN/A
4:00 am77 °FPassing clouds.3 mph83%29.86 "HgN/A
3:00 am79 °FPassing clouds.6 mph84%29.86 "HgN/A
2:00 am79 °FPassing clouds.7 mph84%29.83 "HgN/A
1:00 am79 °FPassing clouds.9 mph84%29.83 "HgN/A
12:00 am79 °FPassing clouds.12 mph84%29.86 "HgN/A
11:00 pm
Wed, Dec 7
79 °FPassing clouds.12 mph84%29.86 "HgN/A
10:00 pm79 °FPassing clouds.12 mph84%29.86 "HgN/A
9:00 pm79 °FPassing clouds.14 mph84%29.86 "HgN/A
8:00 pm79 °FPassing clouds.10 mph84%29.86 "HgN/A
7:00 pm81 °FPassing clouds.13 mph79%29.83 "HgN/A
6:00 pm81 °FClear.14 mph79%29.80 "Hg10 mi
5:00 pm81 °FSunny.15 mph79%29.80 "Hg10 mi
4:00 pm82 °FSunny.17 mph74%29.80 "Hg10 mi
3:00 pm84 °FSunny.20 mph74%29.80 "Hg10 mi
Weather by CustomWeather, © 2016

See weather overviewHow to use our weather pages